CW1502 Weather Reports


Display with metric or nautical units.
time (UTC)temp
F
wind
direction
speed
MPH
gust
MPH
rain 1hr
in
rain 24hr
in
rain mn
in
humidity
%
barometer
mb
20180219015319 33 155 9.0 0.0 0.00 0.00 0.05 78 1014.9
20180219013902 33 144 8.0 0.0 0.00 0.00 0.05 76 1015.5
20180219012307 32 163 8.0 0.0 0.00 0.00 0.05 75 1015.9
20180219010855 32 170 9.0 0.0 0.00 0.00 0.05 73 1016.1
20180219005400 32 168 8.0 0.0 0.00 0.00 0.05 72 1016.3
20180219003805 32 134 7.0 0.0 0.00 0.00 0.05 71 1016.5
20180219002342 32 166 6.0 0.0 0.00 0.00 0.05 70 1016.6
20180219000747 33 144 6.0 0.0 0.00 0.00 0.05 70 1016.8
20180218235334 33 158 6.0 0.0 0.00 0.00 0.05 68 1017.2
20180218233739 33 165 5.0 0.0 0.00 0.00 0.05 67 1017.6
20180218232314 34 135 6.0 0.0 0.00 0.00 0.05 65 1017.7
20180218230711 34 145 5.0 0.0 0.00 0.00 0.05 64 1018.1
20180218225226 35 157 7.0 0.0 0.00 0.00 0.05 63 1018.1
20180218223803 35 161 7.0 0.0 0.00 0.00 0.05 63 1018.4
20180218222212 36 161 8.0 0.0 0.00 0.00 0.05 62 1018.4
20180218220749 36 157 6.0 0.0 0.00 0.00 0.05 62 1018.7
20180218215149 36 157 6.0 0.0 0.00 0.00 0.05 62 1019.0
20180218213728 36 157 6.0 0.0 0.00 0.00 0.05 62 1019.4
20180218212306 37 166 7.0 0.0 0.00 0.00 0.05 61 1019.3
20180218210714 37 176 6.0 0.0 0.00 0.00 0.05 60 1019.4
20180218205140 37 169 5.0 0.0 0.00 0.00 0.05 62 1019.6
20180218203713 37 190 6.0 0.0 0.00 0.00 0.05 63 1019.6
20180218202238 37 161 7.0 0.0 0.00 0.00 0.05 62 1019.8
20180218200631 38 153 7.0 0.0 0.00 0.00 0.05 62 1020.6
20180218195208 38 139 6.0 0.0 0.00 0.00 0.05 61 1020.9
20180218193610 38 155 6.0 0.0 0.00 0.00 0.05 61 1021.2
20180218192154 37 182 8.0 0.0 0.00 0.00 0.05 61 1021.6
20180218190711 38 203 7.0 0.0 0.00 0.00 0.05 61 1021.7
20180218185049 38 193 4.0 0.0 0.00 0.00 0.05 63 1022.3
20180218183617 37 166 5.0 0.0 0.00 0.00 0.05 62 1022.7
20180218182154 38 167 5.0 0.0 0.00 0.00 0.05 62 1023.0
20180218180535 38 225 3.0 0.0 0.00 0.00 0.05 63 1023.2
20180218175112 38 197 4.0 0.0 0.00 0.00 0.05 63 1023.3
20180218173646 38 256 2.0 0.0 0.00 0.00 0.05 65 1023.3
20180218172038 37 198 5.0 0.0 0.00 0.00 0.05 64 1023.4
20180218170613 38 182 3.0 0.0 0.00 0.00 0.05 66 1023.4
20180218165008 36 173 3.0 0.0 0.00 0.00 0.05 70 1023.5
20180218163539 36 198 4.0 0.0 0.00 0.00 0.05 71 1023.2
20180218162118 35 169 5.0 0.0 0.00 0.00 0.05 73 1023.0
20180218160531 33 161 5.0 0.0 0.00 0.00 0.04 77 1023.2
20180218155102 33 163 3.0 0.0 0.00 0.00 0.04 79 1022.9
20180218153453 32 195 4.0 0.0 0.00 0.00 0.04 79 1023.4
20180218152028 32 175 3.0 0.0 0.00 0.00 0.03 81 1023.2
20180218150433 33 212 3.0 0.0 0.00 0.00 0.03 83 1023.2
20180218145013 32 179 3.0 0.0 0.00 0.00 0.01 86 1023.0
20180218143417 31 169 2.0 0.0 0.00 0.00 0.00 88 1023.0
20180218141955 30 191 2.0 0.0 0.00 0.00 0.00 88 1023.4
20180218140526 29 211 1.0 0.0 0.00 0.00 0.00 89 1023.4
20180218134922 29 241 1.0 0.0 0.00 0.00 0.00 89 1023.5
20180218133447 28 244 0.0 0.0 0.00 0.00 0.00 89 1023.7
20180218131855 28 244 0.0 0.0 0.00 0.00 0.00 89 1023.3
20180218130441 28 244 0.0 0.0 0.00 0.00 0.00 88 1023.2
20180218124847 28 244 0.0 0.0 0.00 0.00 0.00 89 1023.0
20180218123410 28 244 0.0 0.0 0.00 0.00 0.00 89 1022.9
20180218121950 28 244 0.0 0.0 0.00 0.00 0.00 89 1022.9
20180218120355 28 244 0.0 0.0 0.00 0.00 0.00 89 1022.4
20180218114914 28 244 0.0 0.0 0.00 0.00 0.00 89 1022.5
20180218113311 28 244 1.0 0.0 0.00 0.00 0.00 89 1022.5
20180218111843 28 244 1.0 0.0 0.00 0.00 0.00 89 1022.5
20180218110353 28 244 0.0 0.0 0.00 0.00 0.00 89 1022.1
20180218104854 27 243 2.0 0.0 0.00 0.00 0.00 89 1022.0
20180218103248 27 244 2.0 0.0 0.00 0.00 0.00 88 1022.0
20180218101819 26 244 0.0 0.0 0.00 0.00 0.00 88 1021.9
20180218100351 26 244 1.0 0.0 0.00 0.00 0.00 87 1021.9
20180218094901 25 246 1.0 0.0 0.00 0.00 0.00 87 1021.6
20180218093249 25 246 2.0 0.0 0.00 0.00 0.00 86 1021.6
20180218091817 25 246 1.0 0.0 0.00 0.00 0.00 85 1021.1
20180218090215 25 248 1.0 0.0 0.00 0.00 0.00 85 1020.8
20180218084749 26 254 0.0 0.0 0.00 0.00 0.00 84 1020.5
20180218083323 26 254 1.0 0.0 0.00 0.00 0.00 84 1020.5
20180218081859 26 254 2.0 0.0 0.00 0.00 0.00 84 1020.6
20180218080301 27 254 3.0 0.0 0.00 0.00 0.00 84 1020.3
20180218074655 27 274 2.0 0.0 0.00 0.00 0.00 84 1019.7
20180218073246 28 274 3.0 0.0 0.00 0.00 0.00 84 1018.8
20180218071641 28 296 4.0 0.0 0.00 0.00 0.00 85 1018.2
20180218070215 29 311 6.0 0.0 0.00 0.00 0.00 86 1018.4
20180218064738 29 272 5.0 0.0 0.00 0.00 0.00 87 1018.3
20180218063131 29 290 8.0 0.0 0.00 0.00 0.00 88 1017.7
20180218061609 29 271 8.0 0.0 0.00 0.00 0.00 89 1017.7
20180218060137 29 278 6.0 0.0 0.00 0.00 0.00 90 1017.5
20180218054716 29 277 7.0 0.0 0.00 0.00 0.00 90 1017.2
20180218053113 29 286 6.0 0.0 0.00 0.00 0.00 91 1016.9
20180218051644 29 306 5.0 0.0 0.00 0.00 0.00 91 1016.6
20180218050046 28 264 2.0 0.0 0.00 0.00 0.00 91 1016.1
20180218044652 28 257 2.0 0.0 0.00 0.00 0.00 90 1015.9
20180218043047 27 257 1.0 0.0 0.00 0.00 0.00 90 1015.7
20180218041608 27 237 0.0 0.0 0.00 0.00 0.00 89 1015.6
20180218040128 26 237 0.0 0.0 0.00 0.00 0.00 89 1015.3
20180218034538 26 237 0.0 0.0 0.00 0.00 0.00 88 1015.1
20180218033114 26 237 0.0 0.0 0.00 0.00 0.00 88 1015.0
20180218031509 26 237 0.0 0.0 0.00 0.00 0.00 88 1015.0
20180218030037 27 237 0.0 0.0 0.00 0.00 0.00 88 1015.0
20180218024615 27 237 0.0 0.0 0.00 0.00 0.00 88 1014.8
20180218022957 28 237 0.0 0.0 0.00 0.00 0.00 88 1014.6
20180218021514 28 237 0.0 0.0 0.00 0.00 0.00 88 1014.5
20180218020036 28 237 0.0 0.0 0.00 0.00 0.00 88 1014.4